Location: Champignolles
(47.0543°N, 4.5663°E)
Time: 14:02:49
(UTC+00:00)

Cosmos 2341 Rocket - Pass Details

Date: 30 November 2020
Orbit: 969 x 1004 km, 82.9° (Epoch: 28 January)

Event Time Altitude Azimuth Distance (km) Brightness Sun altitude
Rises 16:45:56 0° 351° (N) 3,699 6.9 -8.6°
Reaches altitude 10° 16:48:27 10° 353° (N) 2,751 6.2 -9.0°
Maximum altitude 16:54:47 81° 80° (E) 1,009 4.0 -10.0°
Drops below altitude 10° 17:01:08 10° 169° (S) 2,757 6.5 -11.0°
Sets 17:03:40 0° 170° (S) 3,706 7.2 -11.4°
